TimeGMT,TemperatureF,Dew PointF,Humidity,Sea Level PressureIn,VisibilityMPH,Wind Direction,Wind SpeedMPH,Gust SpeedMPH,PrecipitationIn,Events,Conditions,WindDirDegrees,DateUTC
12:00 AM,49,48,95,29.35,5,SSE,6.9,,,Rain,Rain,160,2013-03-08 00:00:00
3:00 AM,49,49,100,29.36,0,West,8.1,,,Rain,Light Rain,280,2013-03-08 03:00:00
3:50 AM,48.2,48.2,100,29.36,3.1,NW,6.9,-,N/A,Fog-Rain,Light Rain,310,2013-03-08 03:50:00
4:20 AM,48.2,46.4,93,29.36,3.7,WNW,8.1,-,N/A,Rain,Rain,300,2013-03-08 04:20:00
4:50 AM,48.2,46.4,93,29.36,5.6,NW,6.9,-,N/A,Rain,Rain,310,2013-03-08 04:50:00
5:20 AM,48.2,46.4,93,29.36,6.2,North,6.9,-,N/A,Rain,Rain,10,2013-03-08 05:20:00
5:50 AM,46.4,46.4,100,29.36,6.2,NE,5.8,-,N/A,Rain,Light Rain,50,2013-03-08 05:50:00
6:00 AM,47,46,97,29.37,22,NE,6.9,,,Rain,Light Rain,40,2013-03-08 06:00:00
6:20 AM,48.2,46.4,93,29.36,-9999.0,NNE,4.6,-,N/A,,Clear,30,2013-03-08 06:20:00
6:50 AM,48.2,46.4,93,29.36,6.2,NNE,3.5,-,N/A,,Partly Cloudy,30,2013-03-08 06:50:00
7:20 AM,48.2,46.4,93,29.39,6.2,West,4.6,-,N/A,,Partly Cloudy,270,2013-03-08 07:20:00
7:50 AM,48.2,46.4,93,29.39,6.2,NNE,2.3,-,N/A,,Mostly Cloudy,20,2013-03-08 07:50:00
8:20 AM,50.0,48.2,94,29.42,6.2,West,1.2,-,N/A,,Scattered Clouds,280,2013-03-08 08:20:00
8:50 AM,50.0,48.2,94,29.42,6.2,WSW,4.6,-,N/A,,Scattered Clouds,240,2013-03-08 08:50:00
9:00 AM,50,48,89,29.44,28,West,3.5,,,,Partly Cloudy,270,2013-03-08 09:00:00
9:20 AM,50.0,46.4,87,29.44,6.2,WSW,2.3,-,N/A,,Mostly Cloudy,240,2013-03-08 09:20:00
9:50 AM,50.0,48.2,94,29.44,6.2,WSW,5.8,-,N/A,,Mostly Cloudy,240,2013-03-08 09:50:00
10:20 AM,50.0,48.2,94,29.44,5.6,WSW,8.1,-,N/A,,Light Drizzle,250,2013-03-08 10:20:00
10:50 AM,50.0,48.2,94,29.44,4.3,West,8.1,-,N/A,,Mostly Cloudy,270,2013-03-08 10:50:00
11:20 AM,51.8,50.0,94,29.47,6.2,West,9.2,-,N/A,,Scattered Clouds,260,2013-03-08 11:20:00
11:50 AM,53.6,50.0,88,29.47,6.2,West,9.2,-,N/A,,Partly Cloudy,270,2013-03-08 11:50:00
12:00 PM,53,49,84,29.49,12,West,10.4,,,,Partly Cloudy,270,2013-03-08 12:00:00
12:20 PM,53.6,50.0,88,29.47,6.2,West,10.4,-,N/A,,Partly Cloudy,260,2013-03-08 12:20:00
12:50 PM,55.4,50.0,82,29.47,6.2,WSW,10.4,-,N/A,,Partly Cloudy,250,2013-03-08 12:50:00
1:20 PM,55.4,50.0,82,29.47,6.2,WSW,9.2,-,N/A,,Partly Cloudy,240,2013-03-08 13:20:00
1:50 PM,55.4,50.0,82,29.47,6.2,WSW,5.8,-,N/A,,Partly Cloudy,250,2013-03-08 13:50:00
2:20 PM,55.4,50.0,82,29.47,6.2,WNW,5.8,-,N/A,,Partly Cloudy,290,2013-03-08 14:20:00
2:50 PM,57.2,46.4,67,29.47,6.2,WNW,5.8,-,N/A,,Partly Cloudy,290,2013-03-08 14:50:00
3:00 PM,56,47,64,29.49,19,West,5.8,,,,Scattered Clouds,280,2013-03-08 15:00:00
3:20 PM,57.2,46.4,67,29.50,6.2,Variable,3.5,-,N/A,,Partly Cloudy,0,2013-03-08 15:20:00
3:50 PM,57.2,48.2,72,29.50,6.2,West,2.3,-,N/A,,Partly Cloudy,260,2013-03-08 15:50:00
4:20 PM,57.2,48.2,72,29.47,6.2,Calm,Calm,-,N/A,,Partly Cloudy,0,2013-03-08 16:20:00
4:50 PM,55.4,48.2,77,29.50,6.2,Variable,2.3,-,N/A,,Scattered Clouds,0,2013-03-08 16:50:00
5:20 PM,51.8,46.4,82,29.50,6.2,South,9.2,-,N/A,,Scattered Clouds,170,2013-03-08 17:20:00
5:50 PM,50.0,46.4,87,29.53,6.2,South,4.6,-,N/A,,Partly Cloudy,180,2013-03-08 17:50:00
6:00 PM,50,47,85,,17,South,4.6,,,Rain,Light Rain Showers,180,2013-03-08 18:00:00
6:20 PM,51.8,48.2,88,29.53,6.2,SSW,4.6,-,N/A,,Partly Cloudy,210,2013-03-08 18:20:00
6:50 PM,51.8,48.2,88,29.53,6.2,South,6.9,-,N/A,Rain,Light Rain Showers,190,2013-03-08 18:50:00
7:20 PM,50.0,48.2,94,29.53,6.2,South,6.9,-,N/A,Rain,Light Rain Showers,190,2013-03-08 19:20:00
7:50 PM,50.0,48.2,94,29.53,6.2,South,8.1,-,N/A,,Mostly Cloudy,180,2013-03-08 19:50:00
8:20 PM,50.0,48.2,94,29.53,6.2,South,10.4,-,N/A,,Mostly Cloudy,180,2013-03-08 20:20:00
8:50 PM,50.0,48.2,94,29.53,6.2,South,10.4,-,N/A,Rain,Light Rain Showers,180,2013-03-08 20:50:00
9:00 PM,50,47,87,29.56,19,South,11.5,,,Rain,Light Rain Showers,180,2013-03-08 21:00:00